Wind_Speed
6 7 7 8 8 9 7 6 6 8 9 9 9 9 9 8 7 6 4 3 2 1 2 3 3 2 1 1 2 2 3 4 5 4 3 3 3 5 5 5 6 7 7 8 8 7 7 7 7
5 5 5 6 8 7 5 4 4 5 7 7 7 7 7 7 7 7 5 4 2 1 1 1 1 1 2 3 4 5 6 6 6 6 5 5 4 4 5 5 5 5 6 8 9 8 6 5 4
3 2 2 2 4 3 3 3 3 2 2 3 3 4 4 5 6 5 4 4 4 3 3 2 1 3 4 5 6 7 7 7 6 6 6 6 6 6 6 7 6 6 6 9 12 12 9 6 4
4 3 2 1 1 1 2 3 4 4 3 2 1 1 1 2 2 2 2 2 2 3 3 3 3 5 6 6 7 7 7 7 6 6 7 7 7 7 8 8 8 8 8 11 13 13 11 8 6
7 5 3 3 4 2 2 4 5 5 4 3 2 1 0 0 1 1 1 2 3 3 3 3 3 4 4 5 6 7 7 7 7 7 7 8 9 9 10 10 11 12 12 13 13 12 10 8 7
11 8 6 6 6 4 1 3 6 7 5 4 2 2 1 0 1 1 2 2 2 3 3 3 3 3 5 6 6 7 8 8 8 8 8 9 11 12 13 13 14 15 15 15 13 12 11 9 8
15 12 10 10 9 7 5 6 9 9 8 5 3 1 2 0 1 1 2 3 4 6 6 7 7 8 8 9 9 9 9 10 10 10 11 12 13 15 15 16 16 17 17 16 15 14 13 12 11
18 15 14 14 13 12 9 7 8 8 7 5 4 2 3 2 3 4 6 7 9 11 12 13 14 15 16 16 16 15 14 14 15 15 15 16 18 18 19 19 19 19 19 19 18 18 17 16 15
21 19 18 19 18 16 11 7 5 5 6 6 5 5 6 7 7 9 11 13 15 16 18 20 20 21 22 23 23 22 21 21 22 22 22 22 23 23 23 23 23 23 23 23 23 22 21 20 20
24 23 24 22 20 18 14 10 9 6 7 9 9 9 11 12 13 15 17 19 21 22 23 25 26 27 27 27 28 29 29 28 28 28 28 28 28 27 27 27 27 27 28 28 28 28 26 26 25
25 28 28 25 24 21 19 15 13 11 11 13 14 15 16 18 19 21 23 24 25 27 28 29 30 31 32 32 32 32 33 33 33 33 33 33 32 32 31 31 31 32 33 33 33 33 32 31 31
24 28 30 29 27 25 23 19 16 16 16 16 17 19 20 22 24 26 28 29 30 32 33 33 33 33 34 35 36 37 37 38 38 38 38 38 37 37 36 36 36 36 37 37 38 38 38 37 36
25 26 28 29 29 28 26 24 22 21 20 20 21 23 24 26 29 30 32 33 34 35 36 36 35 34 35 36 37 37 37 37 38 38 39 39 40 40 40 40 39 39 40 41 42 42 42 41 40
28 26 25 26 28 29 29 28 26 25 25 24 25 27 28 31 33 34 35 36 37 37 36 35 34 34 34 34 34 34 34 34 34 35 36 37 37 37 37 38 38 39 39 40 40 40 41 41 41
31 29 27 27 27 28 29 29 29 29 28 28 28 30 32 35 37 37 37 38 38 37 35 33 32 32 32 32 32 33 33 34 34 35 35 34 34 34 34 34 34 34 35 35 34 34 35 35 37
33 32 30 32 30 30 29 29 33 31 31 31 32 33 35 38 39 39 39 38 37 34 32 32 32 33 32 31 31 31 31 31 32 32 32 31 31 31 31 32 32 33 35 35 36 36 36 35 36
31 33 34 36 35 34 33 34 38 34 35 35 35 36 37 38 39 38 37 35 32 30 31 32 33 33 32 31 30 28 28 28 28 28 28 28 29 29 29 30 31 32 33 35 36 37 37 37 38
28 31 34 36 38 37 38 40 41 40 39 39 38 37 36 36 36 35 34 33 31 30 31 33 33 32 31 31 30 29 27 26 25 25 25 25 25 25 26 28 30 32 33 35 36 37 38 38 38
25 28 29 35 38 39 41 42 43 43 41 39 36 34 33 33 33 33 34 35 33 33 34 33 32 31 31 31 29 27 24 22 21 20 19 18 18 19 21 23 26 29 32 35 37 38 38 38 38
17 20 22 29 34 36 37 38 38 37 35 32 30 30 31 32 32 34 35 35 36 36 36 34 33 31 30 29 26 23 19 17 16 15 13 12 13 14 16 18 21 24 28 32 35 38 39 40 40
9 12 16 20 24 24 27 27 29 30 29 28 27 28 29 30 32 34 36 38 38 38 37 35 33 32 30 27 23 19 15 13 12 12 12 13 13 14 16 18 20 22 25 28 32 36 38 40 41
9 13 14 15 17 16 21 21 20 26 25 26 27 28 30 32 34 37 38 40 40 39 36 34 34 33 30 26 23 19 16 15 15 16 17 17 17 17 18 20 21 23 26 29 31 34 37 38 40
11 13 13 14 15 15 17 18 15 22 23 24 27 30 32 35 38 39 39 39 38 37 36 35 35 34 30 27 24 22 20 21 21 22 22 22 21 19 19 21 22 24 26 29 31 33 35 37 38
11 12 12 12 13 13 15 14 13 18 19 19 21 25 28 32 35 36 36 35 35 34 34 35 35 33 30 28 27 26 25 26 27 27 27 26 23 21 21 22 24 25 27 30 32 32 32 34 36
13 13 11 10 10 12 16 13 16 17 18 18 20 22 24 26 28 31 32 33 32 32 34 34 34 32 31 30 30 30 29 29 30 30 29 27 26 24 23 24 25 27 28 30 32 32 32 32 32
11 11 10 10 11 12 15 15 18 19 19 19 20 22 24 26 27 30 32 32 33 33 34 35 35 35 34 34 33 33 33 32 31 31 30 29 28 26 25 25 26 27 28 29 32 33 32 31 30
7 8 10 12 12 13 12 16 21 21 22 22 22 24 26 28 30 32 33 35 36 36 37 38 39 39 39 39 38 37 36 35 34 33 33 32 31 29 27 26 27 27 27 29 31 33 33 31 29
9 10 11 12 14 14 15 17 21 21 23 24 26 29 31 34 36 37 38 39 40 42 43 44 45 46 46 46 45 43 42 40 39 38 37 36 35 32 30 28 27 27 27 28 30 32 33 31 28
13 14 15 16 18 19 19 22 23 24 26 28 31 33 36 39 41 42 43 44 46 47 48 49 50 51 51 51 51 50 48 46 44 43 41 40 38 35 32 30 28 28 28 28 30 32 33 32 29
17 18 20 21 23 25 26 30 27 28 30 32 34 36 38 40 43 45 47 49 50 51 52 53 54 55 56 56 56 56 55 52 50 48 45 43 41 38 34 32 31 31 30 30 31 32 33 32 30
Wind_Direction
102 83 72 68 59 52 65 82 96 101 102 95 87 82 79 77 76 82 89 88 119 156 137 119 127 151 196 259 292 328 341 338 335 334 331 345 15 31 35 40 40 36 28 23 22 29 38 42 42
121 102 85 72 60 54 55 64 92 110 115 110 101 90 80 75 77 73 68 57 28 350 11 98 136 219 246 264 282 298 311 313 311 313 312 314 328 345 352 354 3 14 14 8 3 -0 2 10 19
180 149 106 85 66 51 38 37 43 59 88 106 102 99 94 84 82 71 60 42 11 348 344 345 298 283 278 276 284 294 303 303 299 303 305 307 310 317 325 331 338 346 352 351 348 345 340 333 326
231 226 224 215 195 320 342 352 351 339 334 334 342 45 83 92 88 66 46 16 353 345 347 336 309 295 290 289 292 295 299 301 297 296 298 300 302 305 314 320 326 330 334 336 336 336 332 325 311
247 247 238 228 218 223 323 335 336 327 308 293 288 278 293 53 360 354 335 321 323 333 358 1 340 317 301 292 289 291 292 292 290 290 293 297 301 307 313 315 318 321 323 326 329 332 330 322 311
246 248 239 226 217 199 261 320 320 306 281 273 267 266 245 339 28 10 343 323 319 331 349 346 328 307 294 287 283 281 281 281 282 285 290 295 299 305 309 310 312 314 319 323 326 326 326 320 310
244 241 235 231 229 225 253 295 309 301 284 276 264 241 221 152 11 4 354 339 331 330 329 320 307 299 292 285 279 273 270 270 273 277 283 288 293 296 299 301 303 306 312 318 320 319 315 309 302
244 241 239 236 238 242 253 282 302 293 277 272 256 239 250 271 301 319 322 322 321 321 319 314 306 299 294 290 286 280 273 271 272 275 279 282 286 289 291 293 296 298 302 306 308 307 305 302 295
243 242 242 239 239 245 249 254 265 283 267 255 249 257 269 286 297 307 310 312 314 315 315 313 307 300 293 288 285 283 279 277 276 277 278 279 281 283 285 288 290 291 292 294 295 295 293 292 290
237 237 241 245 247 249 249 245 247 265 256 253 258 267 277 287 296 301 305 308 311 312 312 309 304 299 293 287 284 282 280 278 277 277 277 277 277 277 279 282 283 283 283 283 284 286 285 284 282
235 236 243 248 251 255 258 255 253 266 270 264 268 274 280 288 293 298 301 305 308 309 308 305 300 296 292 289 285 282 281 279 278 279 279 279 278 276 275 275 276 276 277 277 277 278 279 278 277
236 239 244 249 253 258 261 262 259 263 268 273 278 282 285 289 294 297 301 304 306 306 305 303 299 295 291 289 286 284 282 280 279 279 279 279 277 277 276 275 275 275 275 276 276 276 275 273 272
235 238 244 248 253 256 260 262 261 262 267 274 278 281 283 288 291 295 299 301 302 302 302 300 296 293 290 288 287 285 283 282 282 282 281 280 279 277 276 276 274 273 273 274 274 275 273 269 268
235 237 243 248 251 253 256 259 262 264 268 271 274 277 281 285 288 292 295 296 297 297 297 296 294 292 290 288 287 286 284 283 283 282 282 282 281 280 280 279 277 276 275 274 276 278 277 271 268
237 236 241 247 250 251 254 257 260 261 264 267 270 275 279 282 285 288 290 292 293 294 295 295 295 295 293 290 289 288 286 283 282 282 283 283 283 283 283 283 284 283 282 280 280 283 283 280 277
240 238 238 244 246 249 252 255 259 259 262 266 269 272 276 279 282 284 287 288 291 293 294 297 299 297 294 291 287 287 288 286 283 282 283 283 284 284 285 286 287 286 285 284 284 284 283 280 276
242 239 238 242 244 247 250 252 258 261 262 265 268 270 272 274 277 280 283 285 288 291 295 299 299 297 294 291 290 291 292 290 286 283 284 285 286 286 286 288 288 288 287 286 285 283 282 279 276
243 240 243 244 247 249 252 254 258 260 263 266 269 270 269 268 272 276 278 281 287 293 297 298 297 295 293 293 294 295 293 290 286 284 284 286 288 289 290 291 291 289 288 287 285 283 281 279 277
249 246 246 248 251 252 255 258 262 265 268 269 270 268 264 264 268 273 275 281 289 295 297 296 294 291 291 292 293 291 289 287 285 284 285 289 294 298 298 297 295 291 288 285 283 280 278 277 277
260 256 255 257 255 257 262 266 270 272 272 270 265 262 262 265 269 273 278 284 289 292 294 293 290 290 291 291 289 287 284 281 279 279 285 294 302 307 308 308 306 302 296 290 285 280 277 274 273
281 267 262 265 270 273 275 277 280 276 272 270 265 263 263 266 269 273 279 282 286 290 290 290 289 290 292 291 289 286 281 275 273 276 287 295 301 306 311 315 316 316 312 304 295 287 281 275 272
291 281 279 280 280 279 279 280 277 283 279 272 268 266 266 267 270 273 275 279 283 286 287 288 289 291 291 291 291 289 281 274 273 277 284 292 298 306 313 318 321 323 322 317 307 296 287 280 275
284 290 289 287 286 286 286 289 284 278 279 271 264 261 261 263 265 267 271 273 277 279 282 286 288 289 290 290 290 288 281 276 276 278 284 291 296 303 311 317 319 322 324 324 316 303 291 283 277
292 296 296 298 300 299 289 292 290 283 285 276 267 263 261 261 262 263 264 266 271 276 281 285 287 288 288 289 289 286 282 279 278 279 282 285 290 298 306 311 315 318 323 325 323 315 301 290 280
297 302 307 308 300 293 300 301 290 294 291 284 276 272 270 269 268 269 268 269 273 277 280 283 284 285 286 286 286 284 282 281 280 280 280 281 285 291 299 305 309 313 319 325 327 323 314 302 289
297 302 301 294 289 288 301 300 295 298 297 292 285 281 279 279 279 279 277 278 280 280 280 282 283 283 282 281 281 280 281 281 281 281 282 282 284 288 293 299 303 307 312 320 327 327 320 311 299
308 305 301 302 304 306 297 291 292 296 297 294 290 287 285 284 284 283 280 279 280 279 280 282 282 282 280 278 276 276 277 279 280 280 281 282 284 287 290 294 298 300 307 315 322 326 323 316 307
314 311 307 304 300 297 294 296 288 294 291 289 286 284 281 281 281 281 279 277 277 278 279 280 280 280 279 278 277 276 276 277 279 280 280 281 283 285 287 290 292 296 302 311 319 323 323 319 312
321 317 313 307 305 302 299 288 299 296 290 286 282 279 278 277 278 279 278 278 277 278 278 278 278 278 278 278 278 278 278 278 278 279 280 279 280 280 282 285 289 292 298 306 313 319 321 318 313
319 316 314 313 311 308 307 300 306 299 295 291 288 284 281 278 277 276 276 276 276 275 276 276 276 276 276 276 276 277 278 278 278 278 279 279 278 277 278 281 285 288 293 300 308 313 316 315 313
Height
5933 5933 5934 5935 5937 5937 5937 5936 5936 5935 5934 5933 5933 5932 5932 5933 5934 5936 5934 5932 5932 5931 5930 5929 5929 5929 5929 5928 5927 5926 5925 5924 5922 5921 5919 5918 5917 5916 5915 5914 5913 5913 5912 5911 5910 5908 5906 5905 5903
5933 5934 5936 5937 5937 5938 5938 5937 5936 5935 5935 5934 5933 5933 5933 5933 5934 5934 5933 5932 5932 5932 5931 5930 5930 5930 5929 5928 5927 5926 5925 5924 5922 5921 5920 5918 5917 5917 5916 5915 5914 5913 5912 5911 5910 5909 5907 5905 5903
5933 5934 5936 5937 5937 5938 5937 5936 5936 5935 5934 5934 5933 5933 5933 5933 5933 5933 5933 5932 5932 5932 5931 5930 5930 5930 5929 5928 5927 5925 5924 5923 5921 5921 5920 5918 5917 5917 5916 5915 5914 5913 5912 5911 5910 5909 5907 5905 5903
5933 5934 5936 5937 5937 5937 5936 5936 5934 5933 5933 5932 5932 5932 5931 5931 5931 5932 5931 5931 5931 5930 5930 5929 5929 5929 5928 5927 5926 5925 5923 5922 5921 5920 5919 5918 5916 5915 5915 5914 5914 5913 5911 5910 5909 5907 5906 5905 5903
5932 5934 5936 5937 5937 5936 5936 5935 5934 5933 5932 5931 5931 5930 5930 5930 5930 5930 5930 5930 5929 5929 5928 5928 5928 5928 5927 5926 5925 5924 5923 5921 5920 5919 5918 5917 5916 5914 5913 5913 5912 5911 5910 5909 5908 5906 5904 5903 5902
5931 5934 5936 5937 5937 5936 5936 5935 5934 5933 5932 5931 5930 5930 5929 5929 5928 5928 5928 5928 5928 5927 5927 5926 5926 5926 5925 5924 5923 5922 5921 5920 5918 5917 5916 5915 5914 5913 5912 5911 5910 5909 5907 5906 5905 5904 5902 5901 5900
5930 5932 5934 5935 5936 5936 5936 5935 5934 5933 5932 5931 5930 5929 5928 5928 5927 5927 5927 5927 5927 5927 5927 5926 5925 5924 5923 5922 5921 5920 5919 5918 5916 5915 5914 5913 5912 5910 5909 5908 5907 5905 5904 5904 5903 5902 5901 5900 5899
5926 5930 5932 5933 5934 5935 5935 5935 5933 5932 5931 5930 5929 5928 5927 5927 5926 5926 5926 5926 5926 5925 5925 5924 5924 5923 5921 5920 5919 5917 5916 5915 5914 5912 5911 5910 5908 5907 5905 5904 5903 5902 5901 5900 5900 5899 5898 5897 5896
5923 5928 5929 5929 5930 5932 5933 5933 5933 5932 5931 5929 5928 5927 5926 5925 5925 5925 5924 5924 5924 5923 5922 5921 5921 5919 5918 5917 5915 5914 5912 5911 5910 5909 5907 5906 5904 5903 5901 5900 5899 5898 5897 5896 5895 5895 5894 5893 5893
5921 5924 5925 5925 5927 5928 5930 5931 5931 5931 5930 5929 5927 5925 5924 5923 5923 5922 5922 5921 5921 5920 5919 5917 5916 5915 5913 5911 5910 5909 5907 5906 5904 5903 5902 5900 5899 5897 5896 5895 5894 5893 5892 5891 5890 5889 5889 5888 5887
5917 5918 5918 5920 5922 5924 5926 5928 5929 5929 5928 5927 5925 5924 5922 5921 5920 5920 5919 5918 5917 5916 5915 5913 5911 5909 5907 5905 5904 5902 5901 5899 5898 5896 5895 5894 5893 5891 5890 5889 5888 5887 5886 5885 5884 5883 5883 5882 5881
5913 5913 5914 5916 5918 5920 5922 5924 5926 5926 5926 5924 5923 5921 5919 5918 5917 5916 5916 5915 5913 5912 5910 5907 5905 5903 5901 5899 5897 5895 5893 5892 5891 5889 5888 5887 5886 5884 5883 5882 5881 5880 5879 5877 5876 5875 5875 5874 5874
5909 5909 5910 5912 5914 5915 5917 5919 5921 5922 5921 5921 5919 5918 5916 5915 5913 5912 5911 5910 5908 5906 5904 5902 5899 5897 5894 5892 5890 5888 5886 5885 5883 5882 5880 5878 5877 5877 5876 5875 5873 5872 5871 5869 5868 5866 5866 5865 5865
5904 5906 5907 5908 5909 5911 5912 5914 5916 5917 5917 5917 5916 5914 5912 5910 5909 5908 5906 5905 5903 5900 5898 5896 5893 5890 5888 5885 5883 5881 5879 5878 5876 5874 5872 5870 5869 5868 5867 5865 5864 5863 5862 5860 5859 5858 5856 5855 5855
5899 5902 5904 5904 5905 5906 5908 5910 5911 5911 5911 5911 5911 5909 5908 5905 5903 5902 5901 5899 5897 5894 5892 5890 5887 5884 5881 5879 5877 5874 5872 5871 5869 5867 5864 5863 5861 5860 5859 5857 5856 5855 5854 5853 5851 5850 5848 5847 5847
5894 5898 5900 5899 5900 5901 5905 5906 5904 5905 5905 5905 5905 5904 5902 5900 5898 5896 5895 5893 5891 5889 5886 5883 5880 5877 5874 5872 5870 5868 5866 5864 5861 5859 5857 5856 5855 5853 5852 5851 5850 5848 5847 5845 5844 5842 5841 5840 5839
5888 5892 5893 5893 5894 5895 5898 5899 5897 5899 5899 5899 5899 5898 5896 5894 5892 5891 5889 5887 5885 5883 5880 5877 5874 5870 5867 5865 5863 5861 5859 5857 5854 5852 5850 5849 5848 5847 5845 5844 5843 5841 5839 5838 5836 5835 5833 5832 5831
5882 5885 5886 5888 5887 5890 5891 5891 5891 5891 5892 5892 5892 5891 5889 5887 5886 5885 5883 5881 5880 5877 5875 5871 5868 5864 5861 5859 5857 5854 5852 5850 5848 5846 5844 5843 5842 5840 5839 5837 5835 5834 5832 5830 5828 5827 5824 5823 5822
5877 5879 5881 5881 5881 5883 5883 5883 5883 5883 5884 5885 5884 5883 5882 5881 5880 5879 5877 5875 5873 5870 5868 5865 5862 5859 5856 5854 5851 5848 5846 5844 5842 5840 5838 5837 5836 5834 5832 5830 5828 5826 5824 5822 5820 5818 5816 5815 5813
5873 5875 5877 5876 5874 5876 5876 5876 5876 5876 5876 5877 5877 5877 5877 5876 5875 5873 5870 5868 5865 5863 5860 5857 5855 5852 5850 5848 5845 5842 5839 5837 5836 5835 5833 5832 5830 5828 5826 5824 5821 5819 5816 5814 5812 5809 5808 5807 5805
5871 5871 5872 5871 5870 5871 5871 5871 5869 5869 5870 5871 5871 5872 5871 5870 5868 5866 5863 5860 5857 5855 5852 5850 5847 5845 5843 5840 5838 5835 5833 5832 5831 5830 5829 5827 5825 5823 5820 5818 5815 5813 5810 5807 5803 5800 5798 5797 5796
5869 5867 5867 5866 5867 5867 5867 5866 5867 5863 5863 5864 5864 5864 5864 5862 5860 5857 5854 5851 5849 5847 5844 5842 5840 5838 5836 5833 5831 5829 5827 5826 5825 5824 5823 5821 5819 5817 5814 5812 5809 5806 5803 5799 5795 5791 5788 5786 5785
5864 5863 5863 5862 5862 5862 5861 5861 5863 5858 5856 5856 5856 5855 5854 5853 5850 5847 5845 5843 5841 5839 5837 5835 5833 5831 5829 5827 5825 5823 5822 5821 5820 5818 5816 5814 5812 5810 5808 5805 5803 5800 5797 5793 5788 5783 5778 5775 5774
5862 5862 5861 5860 5860 5860 5857 5858 5857 5853 5850 5849 5848 5846 5845 5843 5840 5837 5835 5834 5833 5831 5829 5827 5825 5823 5822 5820 5818 5817 5816 5815 5814 5812 5810 5808 5805 5803 5801 5798 5796 5793 5790 5786 5781 5775 5770 5766 5764
5861 5860 5861 5861 5861 5859 5854 5853 5851 5848 5846 5844 5842 5840 5838 5837 5834 5831 5828 5826 5824 5823 5822 5820 5818 5816 5814 5813 5812 5810 5809 5807 5806 5805 5803 5801 5799 5796 5794 5791 5789 5786 5783 5779 5774 5768 5762 5758 5755
5858 5858 5858 5858 5857 5856 5852 5849 5846 5843 5841 5839 5837 5835 5833 5831 5829 5827 5824 5821 5819 5816 5814 5812 5810 5808 5807 5806 5804 5803 5801 5798 5797 5795 5794 5793 5791 5788 5786 5783 5781 5778 5775 5772 5767 5761 5756 5751 5747
5856 5855 5854 5853 5851 5850 5850 5846 5840 5838 5836 5835 5832 5830 5827 5825 5822 5820 5817 5814 5811 5808 5806 5803 5801 5799 5797 5796 5795 5793 5791 5789 5787 5786 5784 5783 5781 5779 5777 5775 5772 5770 5767 5764 5760 5755 5750 5745 5741
5855 5853 5851 5850 5848 5847 5846 5843 5840 5835 5832 5829 5826 5823 5820 5817 5814 5811 5808 5805 5802 5799 5796 5793 5791 5788 5786 5784 5783 5782 5781 5779 5777 5775 5774 5772 5770 5769 5767 5765 5763 5761 5758 5756 5752 5749 5744 5739 5735
5852 5850 5848 5846 5844 5841 5840 5840 5834 5830 5827 5823 5819 5815 5811 5808 5804 5800 5797 5794 5790 5787 5784 5781 5779 5776 5774 5771 5769 5768 5767 5766 5765 5763 5762 5760 5759 5757 5756 5755 5753 5751 5750 5747 5744 5741 5738 5734 5729
5848 5845 5843 5841 5838 5834 5831 5831 5827 5822 5818 5814 5810 5806 5801 5797 5793 5789 5785 5781 5777 5773 5770 5767 5764 5761 5758 5756 5754 5752 5750 5750 5749 5749 5748 5747 5746 5745 5745 5744 5743 5742 5740 5739 5737 5734 5731 5727 5723